FW1340 Weather Reports


Display with metric or nautical units.
time (UTC)temp
F
wind
direction
speed
MPH
gust
MPH
rain 1hr
in
rain 24hr
in
rain mn
in
humidity
%
barometer
mb
20240228201512 66 167 0.0 0.0 0.00 0.00 0.00 45 1018.5
20240228200007 65 209 0.0 0.0 0.00 0.00 0.00 47 1018.7
20240228194504 63 156 0.0 0.0 0.00 0.00 0.00 48 1019.0
20240228193101 62 347 0.0 0.0 0.00 0.00 0.00 47 1019.2
20240228191604 63 154 0.0 0.0 0.00 0.00 0.00 48 1019.2
20240228190055 62 150 0.0 0.0 0.00 0.00 0.00 48 1019.4
20240228184547 61 246 0.0 0.0 0.00 0.00 0.00 53 1019.5
20240228183048 60 217 0.0 0.0 0.00 0.00 0.00 54 1019.5
20240228181539 58 71 0.0 0.0 0.00 0.00 0.00 59 1019.6
20240228180047 57 58 0.0 0.0 0.00 0.00 0.00 62 1019.7
20240228174538 57 182 0.0 0.0 0.00 0.00 0.00 65 1019.8
20240228173026 55 157 0.0 0.0 0.00 0.00 0.00 69 1019.7
20240228171522 53 131 0.0 0.0 0.00 0.00 0.00 73 1019.7
20240228170017 51 190 0.0 0.0 0.00 0.00 0.00 78 1019.7
20240228164517 50 139 0.0 0.0 0.00 0.00 0.00 80 1019.8
20240228163011 48 115 0.0 0.0 0.00 0.00 0.00 83 1019.7
20240228161504 46 127 0.0 0.0 0.00 0.00 0.00 88 1019.7
20240228160107 44 117 0.0 0.0 0.00 0.00 0.00 91 1019.7
20240228154556 42 133 0.0 0.0 0.00 0.00 0.00 94 1019.5
20240228153107 40 133 0.0 0.0 0.00 0.00 0.00 93 1019.4
20240228151556 38 133 0.0 0.0 0.00 0.00 0.00 93 1019.4
20240228150045 37 139 0.0 0.0 0.00 0.00 0.00 92 1019.2
20240228144544 37 142 0.0 0.0 0.00 0.00 0.00 92 1019.1
20240228143043 37 109 0.0 0.0 0.00 0.00 0.00 92 1019.0
20240228141539 37 109 0.0 0.0 0.00 0.00 0.00 92 1019.1
20240228140050 37 109 0.0 0.0 0.00 0.00 0.00 92 1019.1
20240228134537 37 109 0.0 0.0 0.00 0.00 0.00 91 1019.0
20240228133037 37 109 0.0 0.0 0.00 0.00 0.00 91 1018.9
20240228131538 38 109 0.0 0.0 0.00 0.00 0.00 91 1018.9
20240228130051 38 107 0.0 0.0 0.00 0.00 0.00 91 1018.9
20240228124534 38 107 0.0 0.0 0.00 0.00 0.00 91 1018.8
20240228123035 38 107 0.0 0.0 0.00 0.00 0.00 91 1018.8
20240228121533 38 107 0.0 0.0 0.00 0.00 0.00 91 1018.7
20240228120030 38 107 0.0 0.0 0.00 0.00 0.00 91 1018.7
20240228114529 38 107 0.0 0.0 0.00 0.00 0.00 91 1018.8
20240228113028 38 109 0.0 0.0 0.00 0.00 0.00 91 1018.8
20240228111548 38 84 0.0 0.0 0.00 0.00 0.00 91 1018.8
20240228110024 38 128 0.0 0.0 0.00 0.00 0.00 90 1018.9
20240228104530 39 109 0.0 0.0 0.00 0.00 0.00 90 1018.9
20240228103019 39 76 0.0 0.0 0.00 0.00 0.00 90 1019.0
20240228101518 39 76 0.0 0.0 0.00 0.00 0.00 89 1019.1
20240228100019 39 94 0.0 0.0 0.00 0.00 0.00 88 1019.3
20240228094514 40 112 0.0 0.0 0.00 0.00 0.00 86 1019.5
20240228093015 41 186 0.0 0.0 0.00 0.00 0.00 86 1019.3
20240228091508 41 216 0.0 0.0 0.00 0.00 0.00 85 1019.3
20240228090006 42 216 0.0 0.0 0.00 0.00 0.00 84 1019.3
20240228084505 42 216 0.0 0.0 0.00 0.00 0.00 83 1019.2
20240228083008 42 216 0.0 0.0 0.00 0.00 0.00 84 1019.2
20240228081502 42 216 0.0 0.0 0.00 0.00 0.00 84 1019.2
20240228080100 42 216 0.0 0.0 0.00 0.00 0.00 84 1019.3
20240228074606 42 216 0.0 0.0 0.00 0.00 0.00 83 1019.2
20240228073058 42 216 0.0 0.0 0.00 0.00 0.00 82 1019.1
20240228071601 43 196 0.0 0.0 0.00 0.00 0.00 82 1019.1
20240228070057 43 93 0.0 0.0 0.00 0.00 0.00 80 1019.0
20240228064602 45 93 0.0 0.0 0.00 0.00 0.00 77 1019.0
20240228063056 46 221 0.0 0.0 0.00 0.00 0.00 75 1018.9
20240228061558 46 221 0.0 0.0 0.00 0.00 0.00 74 1018.8
20240228060056 47 221 0.0 0.0 0.00 0.00 0.00 74 1018.7
20240228054607 47 221 0.0 0.0 0.00 0.00 0.00 73 1018.7
20240228053100 47 221 0.0 0.0 0.00 0.00 0.00 73 1018.7
20240228051555 48 221 0.0 0.0 0.00 0.00 0.00 72 1018.6
20240228050057 48 221 0.0 0.0 0.00 0.00 0.00 71 1018.6
20240228044554 49 252 0.0 0.0 0.00 0.00 0.00 70 1018.5
20240228043053 49 299 0.0 0.0 0.00 0.00 0.00 68 1018.3
20240228041600 50 263 0.0 0.0 0.00 0.00 0.00 68 1018.3
20240228040101 50 269 0.0 0.0 0.00 0.00 0.00 69 1018.2
20240228034552 50 267 0.0 0.0 0.00 0.00 0.00 69 1018.2
20240228033051 51 261 0.0 0.0 0.00 0.00 0.00 67 1018.2
20240228031552 53 257 0.0 0.0 0.00 0.00 0.00 64 1018.1
20240228030050 53 323 0.0 0.0 0.00 0.00 0.00 63 1018.0
20240228024550 54 323 0.0 0.0 0.00 0.00 0.00 62 1017.9
20240228023048 55 330 0.0 0.0 0.00 0.00 0.00 60 1017.8
20240228021549 57 343 0.0 0.0 0.00 0.00 0.00 58 1017.7
20240228020047 58 5 0.0 0.0 0.00 0.00 0.00 55 1017.6
20240228014547 59 343 0.0 0.0 0.00 0.00 0.00 52 1017.6
20240228013046 61 325 0.0 0.0 0.00 0.00 0.00 48 1017.6
20240228011545 61 348 0.0 0.0 0.00 0.00 0.00 44 1017.6
20240228010056 62 355 0.0 0.0 0.00 0.00 0.00 41 1017.6
20240228004558 62 316 0.0 0.0 0.00 0.00 0.00 37 1017.6
20240228003044 63 259 0.0 0.0 0.00 0.00 0.00 36 1017.6
20240228001542 63 279 0.0 0.0 0.00 0.00 0.00 35 1017.5
20240228000046 63 340 0.0 0.0 0.00 0.00 0.00 36 1017.6
20240227234555 63 301 0.0 0.0 0.00 0.00 0.00 38 1017.6
20240227233041 63 307 0.0 0.0 0.00 0.00 0.00 37 1017.5
20240227231541 63 317 0.0 0.0 0.00 0.00 0.00 40 1017.6
20240227230040 63 317 0.0 0.0 0.00 0.00 0.00 41 1017.6
20240227224547 63 317 0.0 0.0 0.00 0.00 0.00 39 1017.7
20240227223038 63 302 0.0 0.0 0.00 0.00 0.00 40 1017.8
20240227221538 63 328 0.0 0.0 0.00 0.00 0.00 36 1017.9
20240227220035 63 5 0.0 0.0 0.00 0.00 0.00 36 1017.8
20240227214537 62 340 0.0 0.0 0.00 0.00 0.00 37 1018.0
20240227213032 62 325 0.0 0.0 0.00 0.00 0.00 38 1018.0
20240227211527 61 350 0.0 0.0 0.00 0.00 0.00 41 1018.2
20240227210037 61 338 0.0 0.0 0.00 0.00 0.00 44 1018.4
20240227204535 61 355 0.0 0.0 0.00 0.00 0.00 46 1018.6
20240227203021 60 304 0.0 0.0 0.00 0.00 0.00 51 1018.8